Tracking 28348 objects as of 8-Dec-2023
HD Live streaming from Space Station
objects crossing your sky now

STARLINK-30481

Track STARLINK-30481 now!
10-day predictions
STARLINK-30481 is classified as:


NORAD ID: 57899
Int'l Code: 2023-146J
Perigee: 565.3 km
Apogee: 567.3 km
Inclination: 43.0 °
Period: 95.8 minutes
Semi major axis: 6937 km
RCS: Unknown
Launch date: September 20, 2023
Source: United States (US)
Launch site: AIR FORCE EASTERN TEST RANGE (AFETR)
Your satellite tracking list
Your tracking list is empty




NASA's NSSDC Master Catalog

Two Line Element Set (TLE):
1 57899U 23146J   23341.40738511  .00004027  00000-0  31318-3 0  9998
2 57899  43.0002 106.7926 0001440 278.9765  81.0914 15.02514879 13226
Source of the keplerian elements: AFSPC